Iowa City, IA

11:25 PM CST on December 14, 2017 (GMT -0600)
Iowa City Municipal

Weather History for KIOW - October, 2012

Change the Weather History Date:

Saturday, October 6, 2012

  Actual Average Record
Temperature  
Mean Temperature 36 °F 56 °F  
Max Temperature 46 °F 67 °F 93 °F (1963)
Min Temperature 26 °F 44 °F 19 °F (1952)
Degree Days  
Heating Degree Days 29 10  
Month to date heating degree days 82 55  
Since 1 July heating degree days 221 167  
Cooling Degree Days 0 1  
Month to date cooling degree days 0 6  
Year to date cooling degree days 1257 908  
Moisture  
Dew Point 26 °F    
Average Humidity 63    
Maximum Humidity 81    
Minimum Humidity 45    
Precipitation  
Precipitation 0.00 in 0.07 in 1.72 in (1959)
Month to date precipitation 0.02 0.49  
Year to date precipitation 19.81 30.03  
Sea Level Pressure  
Sea Level Pressure 30.26 in    
Wind  
Wind Speed 8 mph (NW)    
Max Wind Speed 18 mph    
Max Gust Speed 25 mph    
Visibility 10 miles    
Events      
T = Trace of Precipitation, MM = Missing Value Source: NWS Daily Summary

Daily Weather History Graph

Daily Weather History Graph

Search for Another Location

Airport or City:

Trip Planner

Search our weather history database for the weather conditions in past years. The results will help you decide how hot, cold, wet, or windy it might be!

Date:

Astronomy

Oct. 06, 2012 Rise Set
Actual Time 7:08 AM CDT 6:38 PM CDT
Civil Twilight 6:41 AM CDT 7:06 PM CDT
Nautical Twilight 6:09 AM CDT 7:38 PM CDT
Astronomical Twilight 5:36 AM CDT 8:10 PM CDT
Moon 10:51 PM CDT (10/6) 1:07 PM CDT (10/6)
Length of Visible Light 12h 25m
Length of Day
11h 29m
Waning Gibbous, 65% of the Moon is Illuminated
Oct 6
Waning Gibbous
Oct 8
Last Quarter
Oct 15
New
Oct 21
First Quarter
Oct 29
Full

Hourly Weather History & Observations

Time (CDT) Temp. Windchill Dew Point Humidity Pressure Visibility Wind Dir Wind Speed Gust Speed Precip Events Conditions
12:52 AM 30.0 °F 24.1 °F 21.9 °F 72% 30.22 in 10.0 mi WNW 5.8 mph - N/A   Clear
1:52 AM 33.1 °F 27.7 °F 21.9 °F 64% 30.22 in 10.0 mi WNW 5.8 mph - N/A   Clear
2:52 AM 32.0 °F 25.6 °F 21.9 °F 66% 30.22 in 10.0 mi WNW 6.9 mph - N/A   Clear
3:52 AM 34.0 °F 27.2 °F 23.0 °F 64% 30.21 in 10.0 mi NW 8.1 mph - N/A   Clear
4:52 AM 28.9 °F 21.9 °F 23.0 °F 78% 30.24 in 10.0 mi WNW 6.9 mph - N/A   Clear
5:52 AM 30.0 °F 23.2 °F 23.0 °F 75% 30.23 in 10.0 mi WNW 6.9 mph - N/A   Clear
7:52 AM 28.9 °F 21.9 °F 23.0 °F 78% 30.27 in 10.0 mi West 6.9 mph - N/A   Clear
8:52 AM 34.0 °F 28.0 °F 25.0 °F 70% 30.28 in 10.0 mi West 6.9 mph - N/A   Clear
9:52 AM 39.0 °F 30.3 °F 27.0 °F 62% 30.28 in 10.0 mi NNW 16.1 mph 21.9 mph N/A   Clear
10:52 AM 43.0 °F 37.2 °F 28.0 °F 56% 30.28 in 10.0 mi NNW 10.4 mph - N/A   Scattered Clouds
11:04 AM 42.8 °F 36.2 °F 28.4 °F 57% 30.26 in 10.0 mi NNW 12.7 mph 20.7 mph N/A   Mostly Cloudy
11:27 AM 44.6 °F 38.1 °F 28.4 °F 53% 30.26 in 10.0 mi NW 13.8 mph 20.7 mph N/A   Mostly Cloudy
11:52 AM 43.0 °F 37.7 °F 27.0 °F 53% 30.28 in 10.0 mi NNW 9.2 mph - N/A   Overcast
12:52 PM 45.0 °F 39.3 °F 27.0 °F 49% 30.27 in 10.0 mi NW 11.5 mph - N/A   Overcast
1:52 PM 44.1 °F 38.6 °F 27.0 °F 51% 30.27 in 10.0 mi NW 10.4 mph - N/A   Overcast
2:52 PM 45.0 °F 39.3 °F 26.1 °F 48% 30.26 in 10.0 mi NW 11.5 mph - N/A   Overcast
3:52 PM 45.0 °F 38.9 °F 26.1 °F 48% 30.25 in 10.0 mi NW 12.7 mph 20.7 mph N/A   Overcast
4:52 PM 44.1 °F 37.7 °F 26.1 °F 49% 30.26 in 10.0 mi NW 12.7 mph - N/A   Overcast
5:52 PM 44.1 °F 39.0 °F 25.0 °F 47% 30.26 in 10.0 mi NW 9.2 mph - N/A   Overcast
6:52 PM 44.1 °F 41.5 °F 26.1 °F 49% 30.26 in 10.0 mi WNW 4.6 mph - N/A   Overcast
7:52 PM 44.1 °F 39.5 °F 26.1 °F 49% 30.27 in 10.0 mi NNW 8.1 mph - N/A   Overcast
8:52 PM 43.0 °F 40.3 °F 27.0 °F 53% 30.28 in 10.0 mi NW 4.6 mph - N/A   Overcast
9:52 PM 42.1 °F 39.2 °F 27.0 °F 55% 30.29 in 10.0 mi NW 4.6 mph - N/A   Overcast
10:52 PM 42.1 °F 39.2 °F 26.1 °F 53% 30.28 in 10.0 mi NW 4.6 mph - N/A   Overcast
11:52 PM 41.0 °F 36.4 °F 27.0 °F 57% 30.27 in 10.0 mi WNW 6.9 mph - N/A   Overcast